QPF
0.00 0.00 0.00 0.00 0.00 0.00 0.00 0.00 0.00 0.00 0.01 0.01 0.01 0.01 0.01 0.01 0.00 0.00 0.00 0.01 0.01 0.01 0.00 0.00 0.00 0.02 0.04 0.02 0.01 0.02 0.02 0.01 0.00 0.01 0.00 0.00 0.00 0.00 0.00 0.00 0.00 0.00 0.00 0.00
0.00 0.00 0.00 0.00 0.00 0.00 0.00 0.00 0.00 0.00 0.01 0.01 0.01 0.00 0.00 0.00 0.00 0.01 0.00 0.01 0.02 0.02 0.01 0.02 0.01 0.03 0.05 0.02 0.01 0.00 0.01 0.02 0.00 0.01 0.01 0.00 0.00 0.00 0.00 0.00 0.00 0.00 0.00 0.00
0.00 0.00 0.00 0.00 0.00 0.00 0.00 0.00 0.00 0.00 0.01 0.02 0.02 0.01 0.00 0.00 0.00 0.00 0.00 0.02 0.02 0.02 0.01 0.03 0.01 0.01 0.05 0.01 0.01 0.02 0.01 0.01 0.01 0.01 0.01 0.00 0.00 0.01 0.00 0.00 0.01 0.01 0.00 0.00
0.00 0.00 0.00 0.00 0.00 0.00 0.00 0.00 0.00 0.00 0.00 0.00 0.00 0.01 0.01 0.01 0.00 0.00 0.00 0.01 0.02 0.03 0.01 0.00 0.00 0.02 0.01 0.01 0.02 0.02 0.01 0.01 0.00 0.00 0.00 0.00 0.00 0.00 0.00 0.00 0.01 0.01 0.00 0.00
0.00 0.00 0.00 0.00 0.00 0.00 0.00 0.00 0.00 0.00 0.00 0.00 0.00 0.01 0.02 0.02 0.01 0.02 0.00 0.01 0.01 0.03 0.02 0.02 0.00 0.01 0.00 0.00 0.00 0.00 0.00 0.00 0.00 0.00 0.00 0.00 0.00 0.00 0.00 0.01 0.02 0.01 0.00 0.00
0.00 0.00 0.00 0.00 0.00 0.00 0.00 0.01 0.01 0.01 0.00 0.00 0.01 0.02 0.02 0.01 0.02 0.01 0.00 0.01 0.01 0.02 0.01 0.01 0.01 0.00 0.00 0.00 0.00 0.00 0.00 0.00 0.00 0.00 0.00 0.00 0.00 0.00 0.00 0.00 0.00 0.00 0.01 0.01
0.00 0.00 0.00 0.00 0.00 0.00 0.00 0.01 0.01 0.00 0.00 0.00 0.00 0.01 0.01 0.01 0.02 0.02 0.00 0.00 0.01 0.01 0.00 0.00 0.00 0.00 0.00 0.00 0.00 0.00 0.00 0.00 0.00 0.00 0.00 0.00 0.00 0.00 0.00 0.00 0.00 0.00 0.00 0.00
0.00 0.00 0.00 0.00 0.00 0.00 0.00 0.02 0.02 0.00 0.00 0.00 0.00 0.00 0.01 0.01 0.02 0.03 0.02 0.02 0.02 0.00 0.00 0.01 0.00 0.00 0.00 0.00 0.00 0.00 0.00 0.00 0.00 0.01 0.00 0.00 0.00 0.00 0.00 0.00 0.00 0.00 0.00 0.00
0.00 0.00 0.00 0.00 0.00 0.00 0.00 0.01 0.02 0.00 0.00 0.00 0.00 0.01 0.01 0.01 0.01 0.02 0.02 0.00 0.00 0.01 0.02 0.01 0.00 0.00 0.00 0.00 0.00 0.00 0.00 0.00 0.01 0.01 0.01 0.01 0.02 0.00 0.00 0.00 0.00 0.00 0.00 0.00
0.00 0.00 0.00 0.00 0.00 0.00 0.00 0.01 0.03 0.02 0.00 0.00 0.00 0.00 0.01 0.02 0.02 0.03 0.01 0.01 0.00 0.01 0.02 0.01 0.01 0.01 0.01 0.00 0.00 0.00 0.02 0.02 0.01 0.00 0.01 0.01 0.02 0.00 0.00 0.01 0.01 0.00 0.00 0.00
0.00 0.00 0.00 0.00 0.00 0.00 0.00 0.00 0.00 0.01 0.00 0.00 0.00 0.00 0.00 0.01 0.02 0.02 0.01 0.01 0.01 0.00 0.01 0.02 0.02 0.02 0.03 0.02 0.01 0.02 0.01 0.02 0.02 0.01 0.02 0.02 0.00 0.01 0.01 0.01 0.00 0.00 0.00 0.00
0.00 0.00 0.00 0.00 0.00 0.00 0.00 0.00 0.01 0.01 0.01 0.00 0.00 0.00 0.01 0.03 0.04 0.02 0.01 0.02 0.02 0.01 0.01 0.01 0.01 0.01 0.01 0.02 0.03 0.02 0.02 0.03 0.02 0.00 0.00 0.00 0.00 0.00 0.00 0.00 0.00 0.00 0.00 0.00
0.00 0.00 0.00 0.00 0.00 0.00 0.00 0.00 0.00 0.01 0.00 0.00 0.00 0.01 0.00 0.00 0.01 0.01 0.01 0.01 0.01 0.01 0.01 0.00 0.01 0.02 0.03 0.01 0.01 0.01 0.00 0.02 0.02 0.02 0.01 0.01 0.01 0.00 0.00 0.00 0.00 0.00 0.00 0.00
0.00 0.00 0.00 0.00 0.00 0.00 0.00 0.00 0.01 0.01 0.01 0.00 0.00 0.00 0.00 0.00 0.00 0.01 0.00 0.01 0.01 0.02 0.01 0.00 0.01 0.01 0.01 0.00 0.01 0.01 0.00 0.01 0.02 0.01 0.01 0.00 0.01 0.01 0.00 0.00 0.00 0.00 0.00 0.00
0.00 0.00 0.00 0.00 0.00 0.00 0.00 0.00 0.00 0.00 0.01 0.00 0.00 0.00 0.00 0.00 0.00 0.00 0.00 0.00 0.01 0.00 0.01 0.01 0.00 0.01 0.00 0.00 0.01 0.00 0.00 0.00 0.00 0.00 0.01 0.00 0.00 0.00 0.00 0.00 0.00 0.00 0.00 0.00
0.00 0.00 0.00 0.00 0.00 0.00 0.00 0.00 0.01 0.00 0.01 0.01 0.00 0.00 0.00 0.00 0.00 0.00 0.00 0.00 0.00 0.00 0.00 0.00 0.00 0.01 0.01 0.00 0.00 0.00 0.00 0.00 0.00 0.00 0.00 0.00 0.00 0.00 0.00 0.00 0.00 0.00 0.00 0.00
0.00 0.00 0.00 0.00 0.00 0.00 0.00 0.01 0.00 0.00 0.00 0.01 0.00 0.00 0.00 0.00 0.00 0.00 0.01 0.00 0.00 0.00 0.00 0.00 0.00 0.01 0.02 0.00 0.00 0.01 0.00 0.00 0.00 0.00 0.00 0.00 0.00 0.00 0.00 0.00 0.00 0.00 0.00 0.00
0.00 0.00 0.00 0.00 0.00 0.00 0.00 0.00 0.00 0.00 0.00 0.01 0.01 0.00 0.00 0.00 0.00 0.01 0.01 0.03 0.02 0.00 0.00 0.00 0.00 0.00 0.04 0.02 0.00 0.00 0.00 0.00 0.00 0.00 0.01 0.00 0.00 0.00 0.00 0.00 0.00 0.00 0.00 0.00
0.00 0.00 0.00 0.00 0.00 0.01 0.01 0.00 0.00 0.00 0.00 0.01 0.00 0.00 0.01 0.00 0.00 0.00 0.01 0.03 0.02 0.02 0.01 0.00 0.00 0.00 0.01 0.02 0.00 0.00 0.00 0.00 0.00 0.01 0.01 0.00 0.00 0.00 0.00 0.00 0.00 0.00 0.00 0.00
0.00 0.00 0.00 0.00 0.00 0.00 0.00 0.00 0.00 0.01 0.01 0.01 0.00 0.00 0.00 0.01 0.00 0.01 0.01 0.01 0.01 0.00 0.00 0.00 0.00 0.00 0.02 0.00 0.00 0.00 0.00 0.00 0.00 0.00 0.00 0.00 0.00 0.00 0.00 0.00 0.00 0.00 0.00 0.00
0.00 0.00 0.00 0.00 0.00 0.00 0.01 0.01 0.00 0.00 0.00 0.00 0.00 0.00 0.00 0.00 0.00 0.00 0.00 0.00 0.00 0.00 0.00 0.00 0.00 0.01 0.01 0.00 0.00 0.00 0.00 0.00 0.00 0.00 0.00 0.00 0.00 0.00 0.00 0.00 0.00 0.00 0.00 0.00
0.00 0.00 0.00 0.00 0.00 0.00 0.01 0.00 0.00 0.00 0.00 0.00 0.00 0.00 0.00 0.00 0.00 0.00 0.00 0.00 0.00 0.00 0.00 0.00 0.00 0.01 0.00 0.00 0.00 0.00 0.00 0.00 0.00 0.00 0.00 0.00 0.00 0.00 0.00 0.00 0.00 0.00 0.00 0.00
0.00 0.00 0.00 0.00 0.00 0.00 0.00 0.00 0.00 0.00 0.00 0.00 0.00 0.00 0.00 0.00 0.00 0.00 0.00 0.00 0.00 0.00 0.00 0.00 0.01 0.01 0.00 0.00 0.00 0.00 0.00 0.00 0.00 0.00 0.00 0.00 0.00 0.00 0.00 0.00 0.00 0.00 0.00 0.00
0.00 0.00 0.00 0.00 0.00 0.00 0.00 0.00 0.00 0.00 0.00 0.00 0.00 0.00 0.00 0.00 0.00 0.00 0.00 0.00 0.00 0.00 0.00 0.00 0.01 0.00 0.00 0.00 0.00 0.00 0.00 0.00 0.00 0.00 0.00 0.00 0.00 0.00 0.00 0.00 0.00 0.00 0.00 0.00
0.00 0.00 0.00 0.00 0.00 0.00 0.00 0.00 0.00 0.00 0.00 0.00 0.00 0.00 0.00 0.00 0.00 0.00 0.00 0.00 0.00 0.00 0.00 0.01 0.00 0.00 0.00 0.00 0.00 0.00 0.00 0.00 0.00 0.00 0.00 0.00 0.00 0.00 0.00 0.00 0.00 0.00 0.00 0.00
0.00 0.00 0.00 0.00 0.00 0.00 0.00 0.00 0.00 0.00 0.00 0.00 0.00 0.00 0.00 0.00 0.00 0.00 0.00 0.00 0.00 0.00 0.01 0.00 0.00 0.00 0.00 0.00 0.00 0.00 0.00 0.00 0.00 0.00 0.00 0.00 0.00 0.00 0.00 0.00 0.00 0.00 0.00 0.00
0.00 0.00 0.00 0.00 0.00 0.00 0.00 0.00 0.00 0.00 0.00 0.00 0.00 0.00 0.00 0.00 0.00 0.00 0.00 0.00 0.00 0.00 0.01 0.00 0.00 0.00 0.00 0.00 0.00 0.00 0.00 0.00 0.00 0.00 0.00 0.00 0.00 0.00 0.00 0.01 0.00 0.00 0.00 0.00
MSLP
1014.59 1014.56 1014.78 1015.28 1015.66 1015.38 1015.85 1014.71 1014.12 1013.07 1013.08 1014.42 1014.85 1015.11 1013.91 1012.81 1011.40 1010.32 1010.30 1009.87 1009.62 1009.33 1008.93 1008.29 1007.94 1006.57 1005.65 1005.51 1004.59 1003.85 1003.31 1002.66 1001.78 1000.43 1000.09 1000.21 1000.52 1000.15 999.61 999.31 999.40 999.17 999.38 1000.77
1015.10 1014.77 1015.53 1015.91 1015.56 1015.58 1015.89 1014.70 1013.99 1013.03 1013.34 1014.84 1015.15 1014.44 1013.47 1012.56 1011.25 1010.47 1010.01 1009.78 1010.01 1009.68 1009.41 1008.73 1007.51 1006.67 1005.47 1005.24 1005.04 1004.34 1004.04 1003.69 1002.24 1000.48 1000.52 1000.51 1000.62 1000.26 999.93 999.87 1000.19 999.90 1000.33 1001.89
1015.29 1015.63 1016.29 1016.36 1015.36 1015.43 1015.75 1014.84 1014.55 1013.94 1013.85 1014.35 1014.70 1014.22 1013.18 1012.25 1011.33 1010.47 1009.86 1009.65 1009.87 1009.66 1009.61 1009.07 1007.91 1007.23 1006.19 1005.68 1005.56 1004.81 1004.07 1003.89 1003.92 1003.85 1003.52 1002.45 1001.12 1000.40 1000.45 1000.77 1000.85 1000.89 1001.06 1001.95
1016.31 1016.47 1016.33 1015.71 1015.57 1015.14 1015.38 1015.16 1015.19 1014.64 1014.85 1014.82 1014.66 1014.04 1013.25 1012.39 1011.53 1010.97 1010.17 1009.68 1009.72 1009.99 1009.92 1009.44 1008.47 1007.83 1006.99 1006.46 1006.11 1004.99 1004.93 1005.11 1004.59 1003.75 1002.14 1001.06 1001.23 1000.88 1000.66 1000.78 1000.94 1001.39 1001.64 1001.73
1016.76 1016.24 1015.79 1015.89 1015.48 1015.04 1015.04 1015.26 1015.45 1015.35 1015.36 1014.85 1014.39 1013.87 1013.32 1012.63 1011.47 1011.24 1010.29 1009.82 1009.39 1009.49 1009.62 1009.37 1008.87 1008.20 1007.36 1006.79 1005.49 1005.34 1005.11 1005.35 1004.98 1004.11 1003.11 1002.50 1002.00 1000.91 1000.01 1000.37 1000.60 1000.37 1001.06 1001.63
1016.19 1015.80 1015.86 1015.78 1015.45 1015.17 1015.08 1014.94 1015.05 1015.59 1015.49 1015.10 1014.69 1013.95 1013.14 1012.38 1011.65 1010.76 1010.23 1009.47 1009.25 1008.89 1008.53 1008.33 1007.87 1007.41 1006.94 1006.22 1005.61 1004.81 1004.68 1004.70 1004.74 1004.46 1003.99 1003.08 1001.57 999.84 999.60 999.77 999.80 1000.48 1000.61 1000.51
1015.93 1015.85 1015.82 1015.80 1015.58 1015.45 1015.28 1015.03 1015.33 1016.01 1015.82 1015.47 1014.77 1013.87 1013.14 1012.40 1011.72 1010.96 1010.09 1009.15 1008.86 1008.33 1007.62 1007.53 1007.15 1006.44 1005.70 1005.10 1004.43 1004.29 1004.94 1005.32 1006.03 1006.02 1004.92 1003.78 1001.81 999.84 999.71 1000.08 1000.57 1000.55 1000.55 1000.73
1015.92 1015.78 1015.86 1015.83 1015.64 1015.42 1015.27 1014.90 1015.26 1016.26 1016.24 1015.26 1014.44 1013.55 1013.18 1012.65 1011.90 1011.23 1010.50 1009.85 1009.38 1008.29 1008.12 1008.35 1007.78 1006.52 1005.19 1004.37 1003.63 1003.91 1004.43 1005.72 1007.03 1007.06 1006.04 1004.30 1002.53 1001.56 1001.23 1001.21 1002.38 1001.89 1001.58 1002.00
1015.96 1015.83 1015.83 1015.77 1015.55 1015.31 1015.05 1014.77 1015.14 1016.18 1016.41 1014.86 1014.02 1013.50 1012.97 1012.91 1012.41 1011.67 1011.00 1010.11 1009.17 1009.00 1009.22 1009.48 1009.15 1008.03 1006.87 1005.54 1004.61 1004.15 1004.78 1005.55 1007.27 1007.77 1007.38 1005.71 1004.64 1003.06 1001.82 1001.94 1003.26 1003.47 1002.83 1003.60
1015.94 1015.87 1015.84 1015.69 1015.49 1015.31 1015.40 1015.04 1014.81 1015.59 1015.83 1014.12 1013.80 1013.53 1013.14 1012.69 1012.69 1012.42 1011.76 1011.05 1010.29 1010.07 1010.54 1010.75 1010.05 1008.80 1007.39 1006.56 1005.87 1005.52 1005.96 1006.71 1007.70 1008.17 1008.23 1006.50 1005.40 1004.06 1002.87 1003.26 1005.53 1004.26 1004.17 1004.45
1015.97 1015.89 1015.77 1015.63 1015.49 1015.38 1015.41 1015.05 1014.63 1015.10 1015.30 1014.08 1013.30 1012.99 1013.11 1012.74 1012.50 1012.65 1012.07 1011.66 1011.41 1011.62 1011.81 1011.69 1011.13 1009.99 1008.81 1007.81 1006.99 1006.69 1006.64 1007.29 1007.94 1008.24 1007.93 1007.45 1005.84 1004.66 1004.69 1006.05 1005.89 1005.04 1004.82 1005.11
1015.94 1015.83 1015.72 1015.58 1015.51 1015.42 1015.33 1015.28 1014.48 1014.56 1015.12 1013.94 1012.75 1012.04 1011.67 1011.94 1011.49 1011.78 1011.89 1012.25 1012.19 1012.35 1012.62 1012.52 1011.83 1010.47 1009.60 1008.97 1008.22 1007.46 1007.42 1007.66 1007.84 1007.96 1008.18 1007.59 1007.15 1006.51 1005.43 1005.39 1005.47 1005.56 1005.74 1006.13
1015.86 1015.77 1015.63 1015.53 1015.41 1015.33 1015.37 1015.27 1014.61 1014.68 1014.75 1013.37 1012.02 1011.06 1010.18 1010.08 1010.30 1010.31 1011.58 1011.56 1011.81 1012.15 1012.39 1012.84 1012.30 1011.10 1009.88 1009.10 1008.42 1007.98 1007.85 1007.68 1007.79 1007.74 1008.01 1008.01 1007.55 1006.82 1006.07 1005.92 1006.21 1006.42 1006.51 1006.76
1015.70 1015.62 1015.56 1015.44 1015.25 1015.16 1015.12 1015.16 1014.45 1014.53 1014.70 1014.20 1012.02 1010.37 1010.18 1009.72 1009.67 1009.83 1010.26 1010.76 1011.18 1011.56 1011.97 1012.26 1011.99 1011.07 1009.35 1008.78 1008.27 1007.78 1007.36 1007.08 1007.25 1007.84 1008.03 1007.83 1007.35 1006.52 1006.36 1006.44 1006.61 1006.98 1007.15 1007.36
1015.54 1015.47 1015.40 1015.26 1015.07 1014.92 1014.81 1014.66 1014.15 1013.95 1014.73 1014.33 1012.83 1011.06 1009.58 1009.10 1009.22 1009.48 1009.65 1010.28 1010.86 1011.39 1011.93 1011.84 1011.39 1010.05 1009.14 1008.32 1007.79 1007.48 1006.64 1006.49 1006.99 1007.18 1006.82 1006.74 1006.67 1006.52 1006.53 1006.87 1007.31 1007.48 1007.62 1007.67
1015.40 1015.30 1015.18 1014.99 1014.83 1014.68 1014.83 1014.38 1013.59 1013.44 1013.89 1014.19 1013.23 1011.09 1009.51 1009.13 1009.11 1009.23 1009.57 1010.08 1010.46 1011.08 1011.48 1011.36 1010.33 1009.10 1009.11 1008.89 1008.29 1007.72 1006.72 1006.10 1006.17 1006.65 1006.45 1006.43 1006.58 1006.73 1006.82 1007.27 1007.54 1007.74 1007.91 1008.20
1015.17 1015.04 1014.85 1014.68 1014.57 1014.73 1014.45 1014.17 1013.72 1013.45 1013.67 1014.10 1013.41 1011.76 1009.48 1009.03 1009.12 1009.40 1009.58 1009.70 1010.19 1010.72 1011.13 1010.76 1009.93 1009.00 1008.80 1008.63 1008.22 1007.60 1006.97 1006.60 1006.49 1006.18 1006.30 1006.65 1006.67 1007.06 1007.15 1007.49 1007.94 1008.12 1008.36 1008.56
1014.84 1014.64 1014.38 1014.16 1014.10 1014.13 1014.03 1013.17 1013.41 1013.54 1014.00 1013.84 1013.50 1011.81 1010.18 1009.27 1009.59 1009.95 1009.73 1010.19 1010.36 1010.55 1010.77 1009.98 1009.44 1008.82 1008.51 1008.52 1007.70 1007.22 1006.94 1006.75 1006.81 1006.89 1006.96 1006.78 1006.89 1007.15 1007.52 1007.86 1008.31 1008.61 1008.76 1008.79
1014.44 1014.16 1013.87 1013.87 1013.79 1013.49 1013.04 1012.95 1013.20 1013.47 1014.23 1013.88 1013.12 1012.08 1011.21 1009.47 1009.89 1009.97 1010.10 1010.22 1010.74 1010.03 1010.23 1009.65 1008.91 1008.79 1008.62 1008.31 1007.98 1007.61 1007.16 1006.97 1007.09 1007.26 1007.47 1007.15 1007.30 1007.70 1007.94 1008.25 1008.61 1008.90 1009.00 1009.06
1014.00 1013.97 1013.73 1013.50 1012.72 1012.50 1012.94 1013.36 1013.46 1013.55 1013.51 1013.48 1012.84 1011.79 1011.18 1010.40 1010.42 1010.54 1010.80 1010.50 1010.59 1010.31 1009.30 1008.52 1008.73 1008.57 1008.42 1008.22 1008.11 1007.84 1007.26 1007.08 1007.04 1007.31 1007.40 1007.48 1007.68 1007.99 1008.23 1008.57 1008.83 1009.06 1009.22 1009.46
1013.63 1013.59 1013.33 1012.75 1012.23 1012.61 1012.98 1013.61 1013.54 1013.31 1013.00 1012.14 1011.41 1011.04 1010.78 1010.03 1010.78 1010.86 1010.76 1010.71 1010.42 1010.09 1009.12 1008.91 1008.80 1008.80 1008.51 1008.36 1008.26 1007.79 1007.55 1007.45 1007.49 1007.57 1007.55 1007.64 1007.83 1008.17 1008.55 1008.95 1009.21 1009.38 1009.50 1009.72
1014.43 1014.33 1013.53 1012.92 1012.62 1012.92 1013.05 1012.91 1012.58 1012.11 1011.19 1010.24 1010.22 1009.83 1009.81 1009.95 1010.19 1011.03 1010.81 1011.01 1010.56 1010.07 1009.30 1009.51 1009.31 1008.82 1008.32 1008.38 1008.31 1008.08 1007.91 1007.85 1007.91 1007.88 1007.98 1008.01 1008.22 1008.60 1008.99 1009.38 1009.62 1009.64 1009.64 1009.70
1013.80 1013.93 1013.80 1013.53 1013.31 1013.17 1012.60 1012.09 1011.42 1010.77 1009.88 1009.39 1009.46 1009.64 1009.92 1009.99 1010.48 1011.18 1011.39 1011.24 1010.58 1009.85 1009.82 1009.67 1008.92 1008.50 1008.45 1008.52 1008.52 1008.49 1008.40 1008.39 1008.45 1008.41 1008.45 1008.57 1008.78 1008.96 1009.23 1009.53 1009.58 1009.62 1009.62 1009.47
1013.76 1013.53 1013.41 1013.14 1012.50 1011.85 1010.97 1010.43 1009.85 1009.35 1008.91 1009.07 1009.32 1009.88 1010.56 1010.78 1011.16 1011.40 1011.65 1011.02 1010.59 1010.36 1009.99 1009.44 1009.00 1008.51 1008.57 1008.67 1008.74 1008.85 1009.04 1009.14 1009.17 1009.13 1009.01 1009.03 1009.03 1009.14 1009.18 1009.31 1009.36 1009.60 1009.52 1009.11
1013.16 1012.61 1012.33 1011.51 1010.78 1010.29 1009.88 1009.50 1009.17 1008.61 1008.45 1008.93 1009.59 1010.10 1010.51 1011.06 1011.47 1011.44 1011.24 1010.97 1010.38 1009.88 1009.27 1008.91 1008.62 1008.38 1008.60 1008.89 1009.09 1009.36 1009.54 1009.64 1009.66 1009.58 1009.51 1009.38 1009.10 1009.23 1009.22 1009.07 1008.96 1008.95 1008.75 1008.67
1012.45 1011.67 1010.82 1010.46 1010.42 1010.14 1009.85 1009.53 1009.09 1008.55 1008.79 1009.06 1009.69 1010.34 1010.78 1010.92 1010.96 1010.96 1010.56 1010.15 1009.51 1009.00 1008.80 1008.62 1008.43 1008.58 1008.73 1009.04 1009.34 1009.63 1009.74 1009.81 1009.80 1009.64 1009.46 1009.23 1009.04 1008.98 1008.74 1008.49 1008.38 1008.23 1008.18 1008.20
1011.40 1010.47 1009.91 1010.08 1010.00 1009.92 1009.46 1009.14 1008.78 1008.48 1009.03 1009.48 1009.83 1010.17 1010.34 1010.17 1010.34 1009.97 1009.19 1009.16 1008.97 1008.60 1008.71 1008.50 1008.38 1008.59 1008.83 1009.03 1009.28 1009.58 1009.68 1009.76 1009.70 1009.62 1009.49 1009.37 1009.10 1008.82 1008.57 1008.46 1008.43 1008.15 1007.75 1007.42
Thickness
5477 5469 5464 5452 5441 5435 5419 5417 5393 5412 5401 5364 5341 5329 5367 5379 5382 5394 5384 5387 5386 5383 5381 5384 5386 5409 5419 5423 5433 5433 5441 5443 5455 5493 5487 5495 5486 5491 5501 5516 5517 5520 5537 5516
5460 5457 5443 5434 5430 5422 5409 5403 5403 5406 5390 5337 5332 5359 5371 5371 5377 5382 5381 5379 5375 5376 5373 5370 5393 5403 5422 5420 5412 5421 5431 5432 5432 5466 5483 5491 5481 5479 5482 5485 5492 5510 5518 5508
5448 5439 5423 5418 5425 5415 5406 5399 5378 5391 5381 5370 5358 5354 5360 5365 5376 5378 5382 5381 5373 5372 5367 5381 5378 5388 5405 5413 5411 5421 5430 5427 5428 5434 5443 5461 5469 5477 5477 5475 5487 5488 5498 5494
5427 5418 5416 5422 5415 5413 5406 5392 5379 5388 5347 5350 5355 5359 5360 5358 5360 5365 5372 5369 5372 5360 5353 5357 5373 5376 5386 5402 5397 5423 5418 5399 5425 5439 5460 5467 5472 5477 5479 5478 5478 5476 5476 5487
5411 5417 5421 5415 5413 5411 5405 5390 5377 5370 5359 5364 5360 5356 5345 5351 5363 5358 5362 5362 5372 5363 5345 5357 5354 5366 5379 5382 5412 5410 5415 5394 5422 5429 5458 5464 5465 5480 5492 5493 5490 5490 5477 5475
5417 5419 5414 5412 5409 5406 5401 5395 5385 5362 5360 5356 5346 5347 5358 5358 5357 5362 5367 5368 5357 5353 5365 5372 5377 5384 5387 5392 5395 5404 5412 5398 5399 5415 5435 5439 5428 5459 5483 5491 5494 5481 5475 5486
5415 5413 5411 5407 5405 5401 5398 5392 5379 5354 5337 5343 5349 5357 5358 5358 5358 5354 5363 5366 5363 5372 5382 5380 5383 5392 5400 5406 5414 5418 5388 5403 5392 5389 5410 5360 5449 5484 5488 5479 5476 5479 5479 5482
5411 5410 5407 5404 5400 5397 5394 5389 5377 5354 5337 5349 5352 5357 5356 5352 5354 5356 5358 5362 5363 5368 5371 5353 5368 5379 5400 5417 5427 5424 5420 5394 5369 5361 5399 5428 5454 5464 5464 5457 5443 5458 5459 5464
5406 5405 5404 5400 5397 5395 5391 5386 5373 5352 5338 5341 5357 5356 5355 5334 5338 5343 5355 5361 5367 5363 5351 5338 5343 5364 5380 5398 5414 5429 5418 5407 5369 5367 5376 5394 5414 5436 5457 5454 5418 5439 5446 5438
5403 5401 5399 5398 5395 5392 5386 5380 5374 5357 5346 5353 5354 5339 5349 5351 5342 5333 5343 5354 5355 5360 5347 5341 5348 5358 5392 5381 5396 5401 5389 5381 5358 5348 5354 5389 5407 5430 5446 5431 5404 5427 5429 5424
5399 5398 5396 5394 5392 5388 5383 5378 5373 5360 5351 5353 5359 5357 5346 5344 5341 5330 5342 5339 5339 5339 5325 5325 5341 5361 5370 5375 5390 5389 5383 5380 5369 5379 5371 5378 5406 5421 5412 5399 5400 5414 5416 5414
5396 5395 5394 5392 5389 5385 5380 5373 5374 5366 5353 5351 5359 5360 5359 5353 5355 5347 5345 5343 5340 5328 5317 5327 5344 5361 5363 5366 5370 5381 5384 5384 5372 5371 5369 5380 5382 5396 5411 5410 5407 5406 5403 5400
5393 5392 5391 5389 5386 5383 5378 5374 5373 5365 5356 5357 5362 5368 5375 5372 5367 5367 5343 5348 5356 5340 5347 5341 5345 5352 5362 5367 5369 5372 5383 5381 5380 5388 5379 5378 5376 5391 5397 5402 5396 5393 5392 5389
5391 5390 5388 5386 5385 5381 5378 5373 5375 5368 5357 5349 5360 5376 5370 5374 5373 5372 5368 5364 5363 5359 5352 5349 5339 5355 5375 5373 5385 5385 5380 5391 5390 5377 5373 5374 5381 5390 5395 5391 5387 5383 5381 5378
5388 5387 5385 5384 5383 5381 5379 5376 5376 5372 5356 5338 5351 5369 5378 5379 5378 5376 5377 5370 5365 5359 5346 5343 5350 5366 5369 5375 5379 5382 5394 5394 5373 5367 5390 5386 5388 5388 5386 5381 5376 5374 5372 5371
5386 5385 5384 5383 5382 5381 5377 5374 5379 5375 5367 5351 5346 5372 5383 5382 5380 5379 5377 5370 5365 5358 5355 5354 5364 5382 5372 5370 5372 5381 5388 5399 5393 5385 5389 5385 5383 5380 5379 5371 5368 5365 5362 5357
5384 5384 5384 5383 5381 5378 5375 5375 5376 5374 5369 5356 5349 5359 5387 5388 5384 5376 5373 5374 5367 5361 5357 5357 5364 5372 5371 5368 5371 5382 5389 5389 5387 5386 5384 5374 5375 5369 5369 5365 5360 5358 5354 5351
5384 5384 5384 5384 5382 5379 5376 5382 5377 5372 5365 5363 5358 5362 5378 5389 5367 5362 5372 5364 5363 5360 5356 5363 5368 5372 5369 5363 5384 5385 5384 5384 5374 5364 5360 5366 5366 5365 5362 5357 5352 5349 5346 5344
5384 5385 5385 5384 5381 5377 5384 5381 5376 5372 5361 5358 5356 5357 5349 5386 5374 5367 5365 5366 5349 5364 5357 5363 5370 5366 5362 5375 5371 5374 5376 5374 5363 5358 5352 5359 5358 5354 5353 5348 5345 5341 5339 5337
5383 5383 5385 5371 5385 5387 5382 5374 5365 5366 5362 5360 5356 5369 5359 5380 5365 5355 5358 5353 5351 5349 5363 5373 5367 5364 5370 5368 5365 5365 5372 5372 5367 5357 5353 5353 5351 5349 5348 5342 5340 5338 5335 5330
5383 5381 5381 5386 5388 5382 5376 5357 5363 5359 5364 5367 5369 5371 5364 5379 5359 5353 5359 5344 5352 5348 5361 5364 5361 5345 5357 5360 5355 5362 5365 5365 5361 5358 5357 5354 5352 5348 5342 5336 5333 5329 5325 5322
5370 5371 5378 5382 5380 5374 5377 5362 5373 5375 5384 5388 5381 5383 5385 5383 5376 5353 5357 5361 5359 5366 5366 5346 5335 5356 5364 5356 5360 5360 5359 5356 5354 5352 5350 5349 5346 5337 5332 5326 5322 5320 5319 5315
5371 5370 5372 5369 5367 5361 5367 5348 5379 5365 5387 5393 5393 5375 5380 5375 5367 5352 5353 5349 5340 5364 5338 5341 5352 5362 5361 5356 5354 5351 5349 5345 5343 5342 5338 5335 5331 5327 5323 5317 5313 5309 5307 5310
5365 5365 5360 5361 5360 5375 5383 5388 5391 5390 5395 5394 5387 5371 5365 5356 5352 5349 5346 5356 5363 5341 5330 5361 5346 5361 5354 5351 5349 5347 5340 5331 5329 5328 5327 5322 5320 5314 5308 5303 5299 5300 5297 5301
5364 5372 5359 5378 5386 5391 5394 5392 5396 5398 5397 5387 5370 5365 5361 5349 5346 5349 5355 5352 5345 5350 5353 5345 5357 5362 5356 5348 5343 5335 5330 5320 5320 5319 5316 5312 5312 5308 5303 5297 5296 5294 5292 5288
5366 5376 5379 5384 5383 5380 5383 5382 5382 5390 5386 5377 5367 5364 5347 5348 5348 5356 5344 5363 5341 5349 5358 5350 5352 5356 5346 5339 5334 5328 5324 5320 5317 5314 5312 5312 5309 5306 5305 5302 5296 5292 5285 5280
5371 5370 5376 5377 5379 5379 5380 5381 5381 5384 5374 5358 5357 5346 5347 5350 5341 5343 5353 5342 5344 5349 5349 5349 5351 5345 5338 5334 5331 5321 5320 5317 5314 5311 5309 5305 5302 5299 5296 5295 5288 5283 5281 5278